Location: Staunton
(38.1490°N, 79.0720°W)
Time: 00:00:49
(UTC-05:00)

ISS - Pass Details

Date: 17 November 2018
Orbit: 402 x 408 km, 51.6° (Epoch: 16 November)

Event Time Altitude Azimuth Distance (km) Brightness Sun altitude
Exits shadow 05:00:09 15° 167° (SSE) 1,201 -1.3 -23.4°
Drops below altitude 10° 05:00:51 10° 161° (SSE) 1,450 -0.7 -23.3°
Sets 05:03:02 0° 151° (SSE) 2,307 0.5 -22.8°
